Погода в Каоре

Франция     44°26′49″N   1°26′29″E
темп.,
°C
ветер,
м/с
пор.,
м/с
влажн.,
%
обл.,
%
осадки,
мм/ч
давл.,
гПа
погр.,
м
17 апреля, сб
сб1723:00+4с310665 0.0 1022416
02:00+1с29815 0.0 1022224
05:000ссз259231 0.0 102298
08:000ссз258871 0.0 1022152
11:00+7с45535 0.0 10211011
14:00+12с353472 0.0 10192225
17:00+14сз453079 0.0 10172492
20:00+9ссз6115572 0.0 1019712
18 апреля, вс
вс1823:00+5ссз38755 0.0 1021267
02:00+2ссз23904 0.0 102251
05:00+1ссз22967 0.0 102234
08:00+2ссз12905 0.0 102363
11:00+11ссз35535 0.0 10221114
14:00+13ссз4544100 0.0 10212014
17:00+14ссз354198 0.0 10191920
20:00+12сз2556100 0.0 1020179
19 апреля, пн
пн1923:00+8с2268100 0.0 102131
02:00+6св24725 0.0 102183
05:00+3св11922 0.0 102010
08:00+3всв12865 0.0 102063
11:00+12в11500 0.0 1019747
14:00+17с11385 0.0 10171705
17:00+17ссз11355 0.0 10152024
20:00+13зсз1155100 0.0 101412
20 апреля, вт
вт2023:00+8сз1171100 0.0 101610
02:00+6в1178100 0.0 101510
05:00+5в1181100 0.0 101515
08:00+6вюв1177100 0.0 101562
11:00+13ю1258100 0.0 1015612
14:00+16зюз2248100 0.2 10131567
17:00+15з2348100 0.2 10131565
20:00+11зюз2578100 0.7 1014144
21 апреля, ср
ср2123:00+10юз2281100 0.2 101643
02:00+9зсз1285100 0.3 101672
05:00+8зсз119398 0.1 101612
08:00+8юв019299 0.1 101734
11:00+12вюв117569 0.3 1018738
14:00+13в117426 1.3 1018666
17:00+17в12539 0.6 10161343
20:00+14ююз11668 0.6 101711